JUPITER 3 (ECHOSTAR 24)

Last updated on Mon Oct 20 2025 00:02:51 GMT+0000 (Coordinated Universal Time)

1 57479U 23108A 25291.18958452 -.00000157 00000+0 00000+0 0 9999 2 57479 0.0147 240.5623 0001228 327.1063 152.3448 1.00272045 8223
UTC large
Height (km)
Speed (km/s)
/
Latitude / Longitude
Inclination (degrees)
Orbital Period (minutes)
Azimuth
Elevation
Range (km)
Doppler Factor

Next 0 passes for location: London (51.5072 / 0.1276)

Sorry there are no passes over London.